Year,Month,Day,Hour,Minute,Value (Times are PST for temperature in C)
2017,07,06,00,00,18.70
2017,07,06,00,01,18.70
2017,07,06,00,02,18.70
2017,07,06,00,03,18.70
2017,07,06,00,04,18.60
2017,07,06,00,05,18.60
2017,07,06,00,06,18.60
2017,07,06,00,07,18.60
2017,07,06,00,08,18.50
2017,07,06,00,09,18.50
2017,07,06,00,10,18.50
2017,07,06,00,11,18.40
2017,07,06,00,12,18.40
2017,07,06,00,13,18.40
2017,07,06,00,14,18.40
2017,07,06,00,15,18.40
2017,07,06,00,16,18.30
2017,07,06,00,17,18.30
2017,07,06,00,18,18.30
2017,07,06,00,19,18.30
2017,07,06,00,20,18.30
2017,07,06,00,21,18.20
2017,07,06,00,22,18.20
2017,07,06,00,23,18.20
2017,07,06,00,24,18.20
2017,07,06,00,25,18.10
2017,07,06,00,26,18.10
2017,07,06,00,27,18.10
2017,07,06,00,28,18.00
2017,07,06,00,29,18.00
2017,07,06,00,30,18.00
2017,07,06,00,31,17.90
2017,07,06,00,32,17.90
2017,07,06,00,33,17.90
2017,07,06,00,34,17.90
2017,07,06,00,35,17.90
2017,07,06,00,36,17.90
2017,07,06,00,37,17.90
2017,07,06,00,38,17.90
2017,07,06,00,39,17.80
2017,07,06,00,40,17.80
2017,07,06,00,41,17.80
2017,07,06,00,42,17.80
2017,07,06,00,43,17.80
2017,07,06,00,44,17.80
2017,07,06,00,45,17.80
2017,07,06,00,46,17.70
2017,07,06,00,47,17.70
2017,07,06,00,48,17.70
2017,07,06,00,49,17.70
2017,07,06,00,50,17.70
2017,07,06,00,51,17.70
2017,07,06,00,52,17.70
2017,07,06,00,53,17.60
2017,07,06,00,54,17.60
2017,07,06,00,55,17.60
2017,07,06,00,56,17.60
2017,07,06,00,57,17.60
2017,07,06,00,58,17.50
2017,07,06,00,59,17.50
2017,07,06,01,00,17.50
2017,07,06,01,01,17.40
2017,07,06,01,02,17.40
2017,07,06,01,03,17.40
2017,07,06,01,04,17.40
2017,07,06,01,05,17.40
2017,07,06,01,06,17.30
2017,07,06,01,07,17.30
2017,07,06,01,08,17.30
2017,07,06,01,09,17.30
2017,07,06,01,10,17.30
2017,07,06,01,11,17.30
2017,07,06,01,12,17.30
2017,07,06,01,13,17.20
2017,07,06,01,14,17.20
2017,07,06,01,15,17.20
2017,07,06,01,16,17.20
2017,07,06,01,17,17.20
2017,07,06,01,18,17.20
2017,07,06,01,19,17.20
2017,07,06,01,20,17.20
2017,07,06,01,21,17.20
2017,07,06,01,22,17.20
2017,07,06,01,23,17.20
2017,07,06,01,24,17.20
2017,07,06,01,25,17.20
2017,07,06,01,26,17.20
2017,07,06,01,27,17.20
2017,07,06,01,28,17.20
2017,07,06,01,29,17.10
2017,07,06,01,30,17.10
2017,07,06,01,31,17.10
2017,07,06,01,32,17.10
2017,07,06,01,33,17.10
2017,07,06,01,34,17.10
2017,07,06,01,35,17.10
2017,07,06,01,36,17.10
2017,07,06,01,37,17.10
2017,07,06,01,38,17.10
2017,07,06,01,39,17.10
2017,07,06,01,40,17.10
2017,07,06,01,41,17.10
2017,07,06,01,42,17.10
2017,07,06,01,43,17.10
2017,07,06,01,44,17.10
2017,07,06,01,45,17.10
2017,07,06,01,46,17.10
2017,07,06,01,47,17.10
2017,07,06,01,48,17.00
2017,07,06,01,49,17.00
2017,07,06,01,50,17.00
2017,07,06,01,51,17.00
2017,07,06,01,52,17.00
2017,07,06,01,53,17.00
2017,07,06,01,54,16.90
2017,07,06,01,55,16.90
2017,07,06,01,56,16.90
2017,07,06,01,57,16.90
2017,07,06,01,58,16.90
2017,07,06,01,59,16.90
2017,07,06,02,00,16.90
2017,07,06,02,01,16.90
2017,07,06,02,02,16.90
2017,07,06,02,03,16.90
2017,07,06,02,04,16.90
2017,07,06,02,05,16.90
2017,07,06,02,06,16.90
2017,07,06,02,07,16.80
2017,07,06,02,08,16.80
2017,07,06,02,09,16.80
2017,07,06,02,10,16.80
2017,07,06,02,11,16.80
2017,07,06,02,12,16.80
2017,07,06,02,13,16.80
2017,07,06,02,14,16.80
2017,07,06,02,15,16.70
2017,07,06,02,16,16.70
2017,07,06,02,17,16.70
2017,07,06,02,18,16.60
2017,07,06,02,19,16.60
2017,07,06,02,20,16.60
2017,07,06,02,21,16.60
2017,07,06,02,22,16.60
2017,07,06,02,23,16.50
2017,07,06,02,24,16.50
2017,07,06,02,25,16.40
2017,07,06,02,26,16.40
2017,07,06,02,27,16.40
2017,07,06,02,28,16.40
2017,07,06,02,29,16.30
2017,07,06,02,30,16.30
2017,07,06,02,31,16.30
2017,07,06,02,32,16.30
2017,07,06,02,33,16.30
2017,07,06,02,34,16.20
2017,07,06,02,35,16.20
2017,07,06,02,36,16.20
2017,07,06,02,37,16.20
2017,07,06,02,38,16.20
2017,07,06,02,39,16.20
2017,07,06,02,40,16.20
2017,07,06,02,41,16.10
2017,07,06,02,42,16.10
2017,07,06,02,43,16.10
2017,07,06,02,44,16.00
2017,07,06,02,45,16.00
2017,07,06,02,46,16.00
2017,07,06,02,47,15.90
2017,07,06,02,48,15.90
2017,07,06,02,49,15.80
2017,07,06,02,50,15.80
2017,07,06,02,51,15.80
2017,07,06,02,52,15.70
2017,07,06,02,53,15.70
2017,07,06,02,54,15.60
2017,07,06,02,55,15.60
2017,07,06,02,56,15.60
2017,07,06,02,57,15.50
2017,07,06,02,58,15.50
2017,07,06,02,59,15.40
2017,07,06,03,00,15.40
2017,07,06,03,01,15.30
2017,07,06,03,02,15.30
2017,07,06,03,03,15.30
2017,07,06,03,04,15.30
2017,07,06,03,05,15.20
2017,07,06,03,06,15.20
2017,07,06,03,07,15.20
2017,07,06,03,08,15.10
2017,07,06,03,09,15.10
2017,07,06,03,10,15.10
2017,07,06,03,11,15.00
2017,07,06,03,12,15.00
2017,07,06,03,13,14.90
2017,07,06,03,14,14.90
2017,07,06,03,15,14.80
2017,07,06,03,16,14.80
2017,07,06,03,17,14.80
2017,07,06,03,18,14.80
2017,07,06,03,19,14.70
2017,07,06,03,20,14.70
2017,07,06,03,21,14.70
2017,07,06,03,22,14.60
2017,07,06,03,23,14.60
2017,07,06,03,24,14.60
2017,07,06,03,25,14.60
2017,07,06,03,26,14.60
2017,07,06,03,27,14.50
2017,07,06,03,28,14.50
2017,07,06,03,29,14.50
2017,07,06,03,30,14.40
2017,07,06,03,31,14.40
2017,07,06,03,32,14.40
2017,07,06,03,33,14.40
2017,07,06,03,34,14.40
2017,07,06,03,35,14.40
2017,07,06,03,36,14.40
2017,07,06,03,37,14.40
2017,07,06,03,38,14.40
2017,07,06,03,39,14.40
2017,07,06,03,40,14.30
2017,07,06,03,41,14.30
2017,07,06,03,42,14.30
2017,07,06,03,43,14.30
2017,07,06,03,44,14.30
2017,07,06,03,45,14.30
2017,07,06,03,46,14.20
2017,07,06,03,47,14.20
2017,07,06,03,48,14.20
2017,07,06,03,49,14.20
2017,07,06,03,50,14.10
2017,07,06,03,51,14.10
2017,07,06,03,52,14.10
2017,07,06,03,53,14.10
2017,07,06,03,54,14.00
2017,07,06,03,55,14.00
2017,07,06,03,56,14.00
2017,07,06,03,57,13.90
2017,07,06,03,58,13.90
2017,07,06,03,59,13.90
2017,07,06,04,00,13.90
2017,07,06,04,01,13.90
2017,07,06,04,02,13.90
2017,07,06,04,03,13.90
2017,07,06,04,04,13.80
2017,07,06,04,05,13.80
2017,07,06,04,06,13.80
2017,07,06,04,07,13.80
2017,07,06,04,08,13.80
2017,07,06,04,09,13.80
2017,07,06,04,10,13.80
2017,07,06,04,11,13.80
2017,07,06,04,12,13.80
2017,07,06,04,13,13.80
2017,07,06,04,14,13.80
2017,07,06,04,15,13.80
2017,07,06,04,16,13.80
2017,07,06,04,17,13.80
2017,07,06,04,18,13.80
2017,07,06,04,19,13.80
2017,07,06,04,20,13.80
2017,07,06,04,21,13.80
2017,07,06,04,22,13.80
2017,07,06,04,23,13.80
2017,07,06,04,24,13.80
2017,07,06,04,25,13.80
2017,07,06,04,26,13.80
2017,07,06,04,27,13.80
2017,07,06,04,28,13.80
2017,07,06,04,29,13.80
2017,07,06,04,30,13.80
2017,07,06,04,31,13.80
2017,07,06,04,32,13.80
2017,07,06,04,33,13.80
2017,07,06,04,34,13.80
2017,07,06,04,35,13.80
2017,07,06,04,36,13.80
2017,07,06,04,37,13.80
2017,07,06,04,38,13.80
2017,07,06,04,39,13.70
2017,07,06,04,40,13.70
2017,07,06,04,41,13.70
2017,07,06,04,42,13.70
2017,07,06,04,43,13.70
2017,07,06,04,44,13.70
2017,07,06,04,45,13.70
2017,07,06,04,46,13.70
2017,07,06,04,47,13.70
2017,07,06,04,48,13.60
2017,07,06,04,49,13.60
2017,07,06,04,50,13.60
2017,07,06,04,51,13.60
2017,07,06,04,52,13.60
2017,07,06,04,53,13.60
2017,07,06,04,54,13.60
2017,07,06,04,55,13.70
2017,07,06,04,56,13.70
2017,07,06,04,57,13.60
2017,07,06,04,58,13.60
2017,07,06,04,59,13.60
2017,07,06,05,00,13.60
2017,07,06,05,01,13.60
2017,07,06,05,02,13.60
2017,07,06,05,03,13.60
2017,07,06,05,04,13.60
2017,07,06,05,05,13.60
2017,07,06,05,06,13.60
2017,07,06,05,07,13.50
2017,07,06,05,08,13.50
2017,07,06,05,09,13.40
2017,07,06,05,10,13.40
2017,07,06,05,11,13.40
2017,07,06,05,12,13.40
2017,07,06,05,13,13.40
2017,07,06,05,14,13.30
2017,07,06,05,15,13.30
2017,07,06,05,16,13.30
2017,07,06,05,17,13.30
2017,07,06,05,18,13.30
2017,07,06,05,19,13.30
2017,07,06,05,20,13.30
2017,07,06,05,21,13.20
2017,07,06,05,22,13.20
2017,07,06,05,23,13.20
2017,07,06,05,24,13.20
2017,07,06,05,25,13.20
2017,07,06,05,26,13.20
2017,07,06,05,27,13.10
2017,07,06,05,28,13.10
2017,07,06,05,29,13.10
2017,07,06,05,30,13.10
2017,07,06,05,31,13.10
2017,07,06,05,32,13.10
2017,07,06,05,33,13.10
2017,07,06,05,34,13.00
2017,07,06,05,35,13.00
2017,07,06,05,36,13.00
2017,07,06,05,37,13.00
2017,07,06,05,38,13.00
2017,07,06,05,39,12.90
2017,07,06,05,40,12.90
2017,07,06,05,41,12.90
2017,07,06,05,42,12.90
2017,07,06,05,43,12.90
2017,07,06,05,44,12.90
2017,07,06,05,45,12.90
2017,07,06,05,46,12.90
2017,07,06,05,47,12.90
2017,07,06,05,48,12.90
2017,07,06,05,49,12.90
2017,07,06,05,50,12.90
2017,07,06,05,51,12.90
2017,07,06,05,52,12.90
2017,07,06,05,53,12.90
2017,07,06,05,54,12.90
2017,07,06,05,55,12.90
2017,07,06,05,56,12.90
2017,07,06,05,57,12.90
2017,07,06,05,58,13.00
2017,07,06,05,59,13.00
2017,07,06,06,00,13.00
2017,07,06,06,01,13.00
2017,07,06,06,02,13.00
2017,07,06,06,03,13.00
2017,07,06,06,04,13.00
2017,07,06,06,05,13.00
2017,07,06,06,06,13.10
2017,07,06,06,07,13.10
2017,07,06,06,08,13.10
2017,07,06,06,09,13.10
2017,07,06,06,10,13.10
2017,07,06,06,11,13.10
2017,07,06,06,12,13.10
2017,07,06,06,13,13.10
2017,07,06,06,14,13.20
2017,07,06,06,15,13.20
2017,07,06,06,16,13.20
2017,07,06,06,17,13.20
2017,07,06,06,18,13.20
2017,07,06,06,19,13.30
2017,07,06,06,20,13.30
2017,07,06,06,21,13.30
2017,07,06,06,22,13.30
2017,07,06,06,23,13.30
2017,07,06,06,24,13.30
2017,07,06,06,25,13.40
2017,07,06,06,26,13.40
2017,07,06,06,27,13.50
2017,07,06,06,28,13.50
2017,07,06,06,29,13.60
2017,07,06,06,30,13.60
2017,07,06,06,31,13.60
2017,07,06,06,32,13.70
2017,07,06,06,33,13.70
2017,07,06,06,34,13.80
2017,07,06,06,35,13.80
2017,07,06,06,36,13.90
2017,07,06,06,37,13.90
2017,07,06,06,38,14.00
2017,07,06,06,39,14.10
2017,07,06,06,40,14.20
2017,07,06,06,41,14.20
2017,07,06,06,42,14.30
2017,07,06,06,43,14.30
2017,07,06,06,44,14.40
2017,07,06,06,45,14.50
2017,07,06,06,46,14.50
2017,07,06,06,47,14.60
2017,07,06,06,48,14.70
2017,07,06,06,49,14.70
2017,07,06,06,50,14.80
2017,07,06,06,51,14.90
2017,07,06,06,52,15.00
2017,07,06,06,53,15.00
2017,07,06,06,54,15.10
2017,07,06,06,55,15.10
2017,07,06,06,56,15.20
2017,07,06,06,57,15.20
2017,07,06,06,58,15.20
2017,07,06,06,59,15.30
2017,07,06,07,00,15.30
2017,07,06,07,01,15.30
2017,07,06,07,02,15.40
2017,07,06,07,03,15.40
2017,07,06,07,04,15.40
2017,07,06,07,05,15.50
2017,07,06,07,06,15.50
2017,07,06,07,07,15.60
2017,07,06,07,08,15.60
2017,07,06,07,09,15.60
2017,07,06,07,10,15.70
2017,07,06,07,11,15.70
2017,07,06,07,12,15.70
2017,07,06,07,13,15.70
2017,07,06,07,14,15.80
2017,07,06,07,15,15.80
2017,07,06,07,16,15.80
2017,07,06,07,17,15.80
2017,07,06,07,18,15.80
2017,07,06,07,19,15.80
2017,07,06,07,20,15.90
2017,07,06,07,21,15.90
2017,07,06,07,22,15.90
2017,07,06,07,23,15.90
2017,07,06,07,24,16.00
2017,07,06,07,25,16.00
2017,07,06,07,26,16.00
2017,07,06,07,27,16.00
2017,07,06,07,28,16.00
2017,07,06,07,29,16.00
2017,07,06,07,30,16.10
2017,07,06,07,31,16.10
2017,07,06,07,32,16.10
2017,07,06,07,33,16.20
2017,07,06,07,34,16.20
2017,07,06,07,35,16.30
2017,07,06,07,36,16.40
2017,07,06,07,37,16.50
2017,07,06,07,38,16.60
2017,07,06,07,39,16.60
2017,07,06,07,40,16.60
2017,07,06,07,41,16.70
2017,07,06,07,42,16.60
2017,07,06,07,43,16.60
2017,07,06,07,44,16.60
2017,07,06,07,45,16.50
2017,07,06,07,46,16.50
2017,07,06,07,47,16.40
2017,07,06,07,48,16.30
2017,07,06,07,49,16.30
2017,07,06,07,50,16.20
2017,07,06,07,51,16.20
2017,07,06,07,52,16.20
2017,07,06,07,53,16.10
2017,07,06,07,54,16.10
2017,07,06,07,55,16.10
2017,07,06,07,56,16.00
2017,07,06,07,57,16.00
2017,07,06,07,58,15.90
2017,07,06,07,59,15.90
2017,07,06,08,00,15.90
2017,07,06,08,01,15.80
2017,07,06,08,02,15.80
2017,07,06,08,03,15.80
2017,07,06,08,04,15.80
2017,07,06,08,05,15.80
2017,07,06,08,06,15.70
2017,07,06,08,07,15.60
2017,07,06,08,08,15.60
2017,07,06,08,09,15.50
2017,07,06,08,10,15.50
2017,07,06,08,11,15.50
2017,07,06,08,12,15.50
2017,07,06,08,13,15.50
2017,07,06,08,14,15.50
2017,07,06,08,15,15.50
2017,07,06,08,16,15.50
2017,07,06,08,17,15.60
2017,07,06,08,18,15.60
2017,07,06,08,19,15.60
2017,07,06,08,20,15.70
2017,07,06,08,21,15.70
2017,07,06,08,22,15.70
2017,07,06,08,23,15.70
2017,07,06,08,24,15.80
2017,07,06,08,25,15.80
2017,07,06,08,26,15.80
2017,07,06,08,27,15.90
2017,07,06,08,28,15.90
2017,07,06,08,29,15.90
2017,07,06,08,30,16.00
2017,07,06,08,31,16.10
2017,07,06,08,32,16.10
2017,07,06,08,33,16.20
2017,07,06,08,34,16.20
2017,07,06,08,35,16.30
2017,07,06,08,36,16.30
2017,07,06,08,37,16.30
2017,07,06,08,38,16.30
2017,07,06,08,39,16.40
2017,07,06,08,40,16.40
2017,07,06,08,41,16.40
2017,07,06,08,42,16.30
2017,07,06,08,43,16.30
2017,07,06,08,44,16.30
2017,07,06,08,45,16.30
2017,07,06,08,46,16.30
2017,07,06,08,47,16.30
2017,07,06,08,48,16.30
2017,07,06,08,49,16.30
2017,07,06,08,50,16.30
2017,07,06,08,51,16.30
2017,07,06,08,52,16.30
2017,07,06,08,53,16.30
2017,07,06,08,54,16.40
2017,07,06,08,55,16.40
2017,07,06,08,56,16.40
2017,07,06,08,57,16.40
2017,07,06,08,58,16.40
2017,07,06,08,59,16.50
2017,07,06,09,00,16.50
2017,07,06,09,01,16.60
2017,07,06,09,02,16.60
2017,07,06,09,03,16.70
2017,07,06,09,04,16.70
2017,07,06,09,05,16.80
2017,07,06,09,06,16.80
2017,07,06,09,07,16.80
2017,07,06,09,08,16.80
2017,07,06,09,09,16.80
2017,07,06,09,10,16.80
2017,07,06,09,11,16.90
2017,07,06,09,12,16.90
2017,07,06,09,13,16.90
2017,07,06,09,14,16.80
2017,07,06,09,15,16.80
2017,07,06,09,16,16.80
2017,07,06,09,17,16.80
2017,07,06,09,18,16.80
2017,07,06,09,19,16.90
2017,07,06,09,20,16.90
2017,07,06,09,21,17.00
2017,07,06,09,22,17.10
2017,07,06,09,23,17.10
2017,07,06,09,24,17.20
2017,07,06,09,25,17.20
2017,07,06,09,26,17.20
2017,07,06,09,27,17.10
2017,07,06,09,28,17.00
2017,07,06,09,29,16.90
2017,07,06,09,30,16.80
2017,07,06,09,31,16.70
2017,07,06,09,32,16.70
2017,07,06,09,33,16.60
2017,07,06,09,34,16.60
2017,07,06,09,35,16.70
2017,07,06,09,36,16.70
2017,07,06,09,37,16.70
2017,07,06,09,38,16.70
2017,07,06,09,39,16.80
2017,07,06,09,40,16.80
2017,07,06,09,41,16.90
2017,07,06,09,42,17.00
2017,07,06,09,43,17.10
2017,07,06,09,44,17.30
2017,07,06,09,45,17.40
2017,07,06,09,46,17.50
2017,07,06,09,47,17.60
2017,07,06,09,48,17.80
2017,07,06,09,49,17.80
2017,07,06,09,50,17.80
2017,07,06,09,51,17.90
2017,07,06,09,52,17.90
2017,07,06,09,53,18.00
2017,07,06,09,54,18.00
2017,07,06,09,55,18.00
2017,07,06,09,56,18.00
2017,07,06,09,57,18.00
2017,07,06,09,58,17.90
2017,07,06,09,59,17.80
2017,07,06,10,00,17.80
2017,07,06,10,01,17.80
2017,07,06,10,02,17.70
2017,07,06,10,03,17.70
2017,07,06,10,04,17.70
2017,07,06,10,05,17.70
2017,07,06,10,06,17.70
2017,07,06,10,07,17.70
2017,07,06,10,08,17.70
2017,07,06,10,09,17.70
2017,07,06,10,10,17.70
2017,07,06,10,11,17.80
2017,07,06,10,12,17.80
2017,07,06,10,13,17.90
2017,07,06,10,14,18.00
2017,07,06,10,15,18.10
2017,07,06,10,16,18.20
2017,07,06,10,17,18.20
2017,07,06,10,18,18.20
2017,07,06,10,19,18.30
2017,07,06,10,20,18.30
2017,07,06,10,21,18.30
2017,07,06,10,22,18.40
2017,07,06,10,23,18.40
2017,07,06,10,24,18.40
2017,07,06,10,25,18.40
2017,07,06,10,26,18.40
2017,07,06,10,27,18.30
2017,07,06,10,28,18.30
2017,07,06,10,29,18.30
2017,07,06,10,30,18.20
2017,07,06,10,31,18.20
2017,07,06,10,32,18.10
2017,07,06,10,33,18.10
2017,07,06,10,34,18.10
2017,07,06,10,35,18.10
2017,07,06,10,36,18.10
2017,07,06,10,37,18.10
2017,07,06,10,38,18.20
2017,07,06,10,39,18.30
2017,07,06,10,40,18.30
2017,07,06,10,41,18.40
2017,07,06,10,42,18.50
2017,07,06,10,43,18.60
2017,07,06,10,44,18.60
2017,07,06,10,45,18.70
2017,07,06,10,46,18.80
2017,07,06,10,47,18.90
2017,07,06,10,48,19.00
2017,07,06,10,49,19.10
2017,07,06,10,50,19.20
2017,07,06,10,51,19.30
2017,07,06,10,52,19.40
2017,07,06,10,53,19.40
2017,07,06,10,54,19.50
2017,07,06,10,55,19.60
2017,07,06,10,56,19.60
2017,07,06,10,57,19.60
2017,07,06,10,58,19.70
2017,07,06,10,59,19.70
2017,07,06,11,00,19.70
2017,07,06,11,01,19.80
2017,07,06,11,02,19.80
2017,07,06,11,03,19.80
2017,07,06,11,04,19.90
2017,07,06,11,05,19.90
2017,07,06,11,06,19.90
2017,07,06,11,07,19.80
2017,07,06,11,08,19.80
2017,07,06,11,09,19.80
2017,07,06,11,10,19.90
2017,07,06,11,11,19.90
2017,07,06,11,12,19.90
2017,07,06,11,13,19.90
2017,07,06,11,14,19.90
2017,07,06,11,15,20.00
2017,07,06,11,16,20.10
2017,07,06,11,17,20.10
2017,07,06,11,18,20.10
2017,07,06,11,19,20.20
2017,07,06,11,20,20.20
2017,07,06,11,21,20.10
2017,07,06,11,22,20.10
2017,07,06,11,23,20.10
2017,07,06,11,24,19.90
2017,07,06,11,25,19.70
2017,07,06,11,26,19.60
2017,07,06,11,27,19.40
2017,07,06,11,28,19.30
2017,07,06,11,29,19.30
2017,07,06,11,30,19.20
2017,07,06,11,31,19.20
2017,07,06,11,32,19.20
2017,07,06,11,33,19.20
2017,07,06,11,34,19.20
2017,07,06,11,35,19.20
2017,07,06,11,36,19.30
2017,07,06,11,37,19.40
2017,07,06,11,38,19.50
2017,07,06,11,39,19.50
2017,07,06,11,40,19.60
2017,07,06,11,41,19.60
2017,07,06,11,42,19.60
2017,07,06,11,43,19.70
2017,07,06,11,44,19.70
2017,07,06,11,45,19.70
2017,07,06,11,46,19.70
2017,07,06,11,47,19.70
2017,07,06,11,48,19.60
2017,07,06,11,49,19.60
2017,07,06,11,50,19.60
2017,07,06,11,51,19.50
2017,07,06,11,52,19.40
2017,07,06,11,53,19.30
2017,07,06,11,54,19.20
2017,07,06,11,55,19.20
2017,07,06,11,56,19.10
2017,07,06,11,57,19.10
2017,07,06,11,58,19.10
2017,07,06,11,59,19.10
2017,07,06,12,00,19.10
2017,07,06,12,01,19.10
2017,07,06,12,02,19.10
2017,07,06,12,03,19.10
2017,07,06,12,04,19.20
2017,07,06,12,05,19.20
2017,07,06,12,06,19.20
2017,07,06,12,07,19.20
2017,07,06,12,08,19.30
2017,07,06,12,09,19.30
2017,07,06,12,10,19.30
2017,07,06,12,11,19.30
2017,07,06,12,12,19.30
2017,07,06,12,13,19.30
2017,07,06,12,14,19.40
2017,07,06,12,15,19.50
2017,07,06,12,16,19.50
2017,07,06,12,17,19.60
2017,07,06,12,18,19.60
2017,07,06,12,19,19.60
2017,07,06,12,20,19.60
2017,07,06,12,21,19.50
2017,07,06,12,22,19.50
2017,07,06,12,23,19.60
2017,07,06,12,24,19.60
2017,07,06,12,25,19.70
2017,07,06,12,26,19.60
2017,07,06,12,27,19.60
2017,07,06,12,28,19.50
2017,07,06,12,29,19.40
2017,07,06,12,30,19.40
2017,07,06,12,31,19.40
2017,07,06,12,32,19.50
2017,07,06,12,33,19.60
2017,07,06,12,34,19.70
2017,07,06,12,35,19.90
2017,07,06,12,36,19.90
2017,07,06,12,37,20.00
2017,07,06,12,38,20.00
2017,07,06,12,39,20.10
2017,07,06,12,40,20.20
2017,07,06,12,41,20.30
2017,07,06,12,42,20.30
2017,07,06,12,43,20.40
2017,07,06,12,44,20.50
2017,07,06,12,45,20.60
2017,07,06,12,46,20.70
2017,07,06,12,47,20.70
2017,07,06,12,48,20.70
2017,07,06,12,49,20.60
2017,07,06,12,50,20.60
2017,07,06,12,51,20.60
2017,07,06,12,52,20.50
2017,07,06,12,53,20.50
2017,07,06,12,54,20.50
2017,07,06,12,55,20.50
2017,07,06,12,56,20.50
2017,07,06,12,57,20.50
2017,07,06,12,58,20.40
2017,07,06,12,59,20.40
2017,07,06,13,00,20.40
2017,07,06,13,01,20.40
2017,07,06,13,02,20.40
2017,07,06,13,03,20.50
2017,07,06,13,04,20.50
2017,07,06,13,05,20.60
2017,07,06,13,06,20.60
2017,07,06,13,07,20.70
2017,07,06,13,08,20.60
2017,07,06,13,09,20.60
2017,07,06,13,10,20.60
2017,07,06,13,11,20.60
2017,07,06,13,12,20.60
2017,07,06,13,13,20.60
2017,07,06,13,14,20.60
2017,07,06,13,15,20.60
2017,07,06,13,16,20.70
2017,07,06,13,17,20.80
2017,07,06,13,18,20.90
2017,07,06,13,19,20.90
2017,07,06,13,20,21.00
2017,07,06,13,21,21.20
2017,07,06,13,22,21.30
2017,07,06,13,23,21.40
2017,07,06,13,24,21.50
2017,07,06,13,25,21.60
2017,07,06,13,26,21.70
2017,07,06,13,27,21.80
2017,07,06,13,28,21.90
2017,07,06,13,29,22.00
2017,07,06,13,30,22.10
2017,07,06,13,31,22.10
2017,07,06,13,32,22.10
2017,07,06,13,33,22.10
2017,07,06,13,34,22.20
2017,07,06,13,35,22.20
2017,07,06,13,36,22.20
2017,07,06,13,37,22.20
2017,07,06,13,38,22.30
2017,07,06,13,39,22.30
2017,07,06,13,40,22.30
2017,07,06,13,41,22.30
2017,07,06,13,42,22.30
2017,07,06,13,43,22.30
2017,07,06,13,44,22.20
2017,07,06,13,45,22.20
2017,07,06,13,46,22.30
2017,07,06,13,47,22.30
2017,07,06,13,48,22.20
2017,07,06,13,49,22.20
2017,07,06,13,50,22.30
2017,07,06,13,51,22.40
2017,07,06,13,52,22.40
2017,07,06,13,53,22.50
2017,07,06,13,54,22.50
2017,07,06,13,55,22.50
2017,07,06,13,56,22.50
2017,07,06,13,57,22.50
2017,07,06,13,58,22.50
2017,07,06,13,59,22.50
2017,07,06,14,00,22.60
2017,07,06,14,01,22.70
2017,07,06,14,02,22.70
2017,07,06,14,03,22.70
2017,07,06,14,04,22.70
2017,07,06,14,05,22.70
2017,07,06,14,06,22.60
2017,07,06,14,07,22.50
2017,07,06,14,08,22.50
2017,07,06,14,09,22.50
2017,07,06,14,10,22.50
2017,07,06,14,11,22.40
2017,07,06,14,12,22.40
2017,07,06,14,13,22.40
2017,07,06,14,14,22.30
2017,07,06,14,15,22.30
2017,07,06,14,16,22.30
2017,07,06,14,17,22.30
2017,07,06,14,18,22.30
2017,07,06,14,19,22.40
2017,07,06,14,20,22.50
2017,07,06,14,21,22.60
2017,07,06,14,22,22.70
2017,07,06,14,23,22.80
2017,07,06,14,24,22.90
2017,07,06,14,25,22.90
2017,07,06,14,26,23.00
2017,07,06,14,27,23.10
2017,07,06,14,28,23.10
2017,07,06,14,29,23.00
2017,07,06,14,30,23.00
2017,07,06,14,31,23.10
2017,07,06,14,32,23.10
2017,07,06,14,33,23.00
2017,07,06,14,34,22.90
2017,07,06,14,35,22.90
2017,07,06,14,36,23.00
2017,07,06,14,37,23.10
2017,07,06,14,38,23.20
2017,07,06,14,39,23.30
2017,07,06,14,40,23.50
2017,07,06,14,41,23.50
2017,07,06,14,42,23.60
2017,07,06,14,43,23.70
2017,07,06,14,44,23.70
2017,07,06,14,45,23.90
2017,07,06,14,46,24.00
2017,07,06,14,47,24.00
2017,07,06,14,48,24.10
2017,07,06,14,49,24.10
2017,07,06,14,50,24.20
2017,07,06,14,51,24.20
2017,07,06,14,52,24.20
2017,07,06,14,53,24.20
2017,07,06,14,54,24.30
2017,07,06,14,55,24.40
2017,07,06,14,56,24.40
2017,07,06,14,57,24.40
2017,07,06,14,58,24.50
2017,07,06,14,59,24.50
2017,07,06,15,00,24.60
2017,07,06,15,01,24.70
2017,07,06,15,02,24.70
2017,07,06,15,03,24.80
2017,07,06,15,04,24.90
2017,07,06,15,05,24.90
2017,07,06,15,06,25.00
2017,07,06,15,07,25.10
2017,07,06,15,08,25.10
2017,07,06,15,09,25.10
2017,07,06,15,10,25.10
2017,07,06,15,11,25.10
2017,07,06,15,12,25.10
2017,07,06,15,13,25.00
2017,07,06,15,14,24.90
2017,07,06,15,15,24.80
2017,07,06,15,16,24.80
2017,07,06,15,17,24.70
2017,07,06,15,18,24.70
2017,07,06,15,19,24.70
2017,07,06,15,20,24.70
2017,07,06,15,21,24.70
2017,07,06,15,22,24.70
2017,07,06,15,23,24.60
2017,07,06,15,24,24.50
2017,07,06,15,25,24.50
2017,07,06,15,26,24.50
2017,07,06,15,27,24.50
2017,07,06,15,28,24.50
2017,07,06,15,29,24.50
2017,07,06,15,30,24.40
2017,07,06,15,31,24.40
2017,07,06,15,32,24.40
2017,07,06,15,33,24.40
2017,07,06,15,34,24.40
2017,07,06,15,35,24.40
2017,07,06,15,36,24.40
2017,07,06,15,37,24.30
2017,07,06,15,38,24.30
2017,07,06,15,39,24.30
2017,07,06,15,40,24.30
2017,07,06,15,41,24.30
2017,07,06,15,42,24.30
2017,07,06,15,43,24.30
2017,07,06,15,44,24.30
2017,07,06,15,45,24.30
2017,07,06,15,46,24.30
2017,07,06,15,47,24.30
2017,07,06,15,48,24.30
2017,07,06,15,49,24.30
2017,07,06,15,50,24.30
2017,07,06,15,51,24.40
2017,07,06,15,52,24.50
2017,07,06,15,53,24.60
2017,07,06,15,54,24.50
2017,07,06,15,55,24.50
2017,07,06,15,56,24.50
2017,07,06,15,57,24.70
2017,07,06,15,58,24.70
2017,07,06,15,59,24.80
2017,07,06,16,00,24.80
2017,07,06,16,01,24.80
2017,07,06,16,02,24.80
2017,07,06,16,03,24.60
2017,07,06,16,04,24.50
2017,07,06,16,05,24.50
2017,07,06,16,06,24.50
2017,07,06,16,07,24.50
2017,07,06,16,08,24.50
2017,07,06,16,09,24.40
2017,07,06,16,10,24.40
2017,07,06,16,11,24.40
2017,07,06,16,12,24.30
2017,07,06,16,13,24.30
2017,07,06,16,14,24.20
2017,07,06,16,15,24.20
2017,07,06,16,16,24.20
2017,07,06,16,17,24.20
2017,07,06,16,18,24.20
2017,07,06,16,19,24.20
2017,07,06,16,20,24.30
2017,07,06,16,21,24.30
2017,07,06,16,22,24.30
2017,07,06,16,23,24.30
2017,07,06,16,24,24.40
2017,07,06,16,25,24.40
2017,07,06,16,26,24.50
2017,07,06,16,27,24.60
2017,07,06,16,28,24.70
2017,07,06,16,29,24.70
2017,07,06,16,30,24.70
2017,07,06,16,31,24.70
2017,07,06,16,32,24.70
2017,07,06,16,33,24.70
2017,07,06,16,34,24.70
2017,07,06,16,35,24.70
2017,07,06,16,36,24.70
2017,07,06,16,37,24.70
2017,07,06,16,38,24.70
2017,07,06,16,39,24.70
2017,07,06,16,40,24.60
2017,07,06,16,41,24.60
2017,07,06,16,42,24.60
2017,07,06,16,43,24.50
2017,07,06,16,44,24.40
2017,07,06,16,45,24.40
2017,07,06,16,46,24.40
2017,07,06,16,47,24.40
2017,07,06,16,48,24.40
2017,07,06,16,49,24.40
2017,07,06,16,50,24.40
2017,07,06,16,51,24.40
2017,07,06,16,52,24.30
2017,07,06,16,53,24.40
2017,07,06,16,54,24.40
2017,07,06,16,55,24.50
2017,07,06,16,56,24.60
2017,07,06,16,57,24.70
2017,07,06,16,58,24.70
2017,07,06,16,59,24.80
2017,07,06,17,00,24.80
2017,07,06,17,01,24.80
2017,07,06,17,02,24.80
2017,07,06,17,03,24.80
2017,07,06,17,04,24.80
2017,07,06,17,05,24.80
2017,07,06,17,06,24.80
2017,07,06,17,07,24.80
2017,07,06,17,08,24.80
2017,07,06,17,09,24.80
2017,07,06,17,10,24.80
2017,07,06,17,11,24.80
2017,07,06,17,12,24.80
2017,07,06,17,13,24.80
2017,07,06,17,14,24.90
2017,07,06,17,15,24.90
2017,07,06,17,16,24.90
2017,07,06,17,17,25.00
2017,07,06,17,18,25.10
2017,07,06,17,19,25.30